Temp
-10 -10 -10 -11 -11 -11 -10 -10 -10 -9 -9 -10 -9 -8 -8 -6 -5 -4 -3 -3 -2 -2 -2 -2 -1 -1 -0 0 0 1 1 1 2 2 3 4 4 4 5 5 5 6
-10 -10 -10 -10 -10 -10 -10 -10 -10 -9 -9 -9 -8 -8 -7 -6 -5 -5 -4 -3 -2 -2 -2 -2 -2 -2 -1 -1 -1 -0 0 0 1 1 2 2 3 3 4 4 4 5
-10 -10 -10 -10 -10 -10 -9 -9 -9 -9 -9 -8 -7 -8 -7 -6 -5 -5 -4 -4 -3 -2 -2 -2 -2 -2 -2 -2 -2 -1 -1 -1 -1 0 0 1 2 2 3 3 3 4
-11 -10 -10 -10 -11 -10 -9 -8 -8 -8 -8 -8 -7 -7 -7 -6 -6 -5 -4 -4 -4 -3 -3 -3 -3 -3 -3 -3 -3 -2 -2 -3 -3 -1 -1 -0 0 1 1 2 3 3
-11 -11 -10 -10 -10 -10 -9 -9 -9 -8 -8 -8 -8 -7 -7 -6 -7 -6 -5 -5 -4 -4 -4 -3 -4 -4 -4 -4 -4 -4 -4 -4 -4 -3 -2 -2 -1 -1 -0 1 2 2
-12 -12 -11 -11 -11 -10 -10 -10 -10 -9 -9 -9 -8 -8 -7 -7 -8 -7 -6 -6 -5 -5 -5 -4 -4 -4 -4 -5 -5 -5 -5 -5 -5 -4 -4 -3 -2 -2 -1 -1 0 1
-13 -13 -12 -12 -12 -11 -11 -11 -10 -10 -10 -9 -8 -8 -8 -8 -8 -8 -7 -8 -7 -6 -6 -5 -5 -5 -5 -6 -6 -6 -6 -6 -6 -5 -5 -5 -4 -3 -2 -2 -1 -0
-14 -13 -13 -13 -13 -12 -12 -12 -11 -11 -10 -10 -9 -9 -9 -9 -9 -8 -8 -8 -8 -7 -7 -6 -6 -6 -6 -6 -7 -7 -7 -7 -6 -6 -6 -5 -5 -4 -4 -3 -2 -2
-14 -14 -14 -14 -14 -13 -13 -14 -13 -12 -11 -11 -11 -10 -10 -10 -10 -9 -8 -9 -8 -8 -8 -7 -7 -7 -7 -7 -8 -8 -8 -8 -7 -7 -6 -6 -6 -5 -5 -4 -3 -3
-15 -15 -15 -15 -15 -15 -15 -15 -13 -13 -12 -12 -12 -11 -11 -11 -11 -10 -10 -10 -9 -9 -9 -8 -8 -8 -7 -8 -9 -9 -9 -8 -8 -7 -7 -7 -6 -6 -6 -5 -4 -4
-16 -16 -16 -16 -16 -15 -16 -15 -14 -14 -14 -13 -14 -13 -13 -13 -12 -11 -12 -11 -10 -10 -10 -9 -9 -8 -8 -8 -9 -10 -9 -9 -9 -8 -8 -7 -7 -7 -6 -6 -5 -5
-17 -17 -17 -17 -17 -17 -16 -16 -15 -15 -15 -15 -15 -15 -15 -14 -13 -13 -13 -13 -12 -12 -11 -10 -9 -9 -9 -9 -10 -10 -10 -10 -9 -9 -8 -8 -8 -7 -7 -7 -6 -6
-18 -18 -18 -18 -18 -18 -18 -17 -16 -15 -16 -16 -16 -17 -16 -16 -15 -15 -14 -14 -13 -13 -12 -11 -11 -10 -10 -11 -11 -11 -10 -10 -9 -9 -9 -9 -8 -8 -8 -7 -7 -6
-19 -19 -19 -19 -19 -19 -19 -18 -17 -17 -17 -16 -17 -17 -17 -17 -17 -16 -15 -15 -14 -14 -13 -13 -12 -11 -10 -12 -12 -12 -11 -10 -10 -10 -10 -9 -9 -9 -8 -8 -7 -7
-19 -20 -20 -20 -20 -20 -19 -19 -19 -19 -18 -17 -18 -18 -18 -18 -18 -17 -17 -17 -16 -15 -14 -14 -13 -12 -12 -13 -13 -12 -11 -11 -10 -10 -10 -10 -10 -9 -9 -8 -8 -7
-20 -20 -20 -20 -21 -20 -20 -20 -20 -20 -19 -19 -19 -19 -18 -18 -18 -17 -18 -18 -17 -17 -16 -15 -14 -13 -13 -14 -13 -12 -11 -11 -11 -11 -11 -11 -10 -10 -9 -9 -8 -8
-21 -21 -21 -21 -21 -21 -21 -21 -21 -21 -20 -20 -20 -20 -19 -19 -19 -18 -19 -18 -18 -18 -18 -17 -16 -14 -14 -15 -14 -12 -12 -11 -11 -11 -11 -11 -11 -10 -10 -10 -9 -8
-21 -22 -22 -22 -21 -21 -21 -21 -21 -21 -21 -21 -21 -20 -20 -20 -20 -20 -19 -19 -19 -19 -18 -18 -17 -15 -15 -15 -14 -13 -13 -12 -12 -12 -11 -11 -11 -11 -11 -11 -10 -9
-22 -22 -22 -22 -21 -21 -21 -22 -22 -22 -22 -22 -22 -21 -21 -21 -21 -21 -20 -20 -20 -19 -19 -19 -17 -16 -16 -16 -15 -14 -13 -12 -12 -12 -12 -12 -12 -12 -12 -11 -11 -10
-22 -23 -22 -22 -22 -22 -22 -22 -22 -22 -22 -22 -22 -22 -22 -22 -22 -21 -21 -21 -21 -20 -20 -20 -18 -17 -17 -17 -16 -15 -14 -13 -13 -13 -13 -13 -13 -13 -12 -12 -11 -11
-23 -23 -22 -22 -22 -22 -23 -23 -23 -23 -22 -22 -23 -23 -22 -22 -22 -22 -22 -22 -22 -22 -21 -21 -19 -18 -18 -17 -16 -15 -14 -14 -14 -14 -14 -14 -13 -13 -13 -12 -12 -11
-23 -23 -23 -23 -23 -23 -23 -23 -24 -24 -23 -23 -23 -23 -22 -23 -23 -23 -23 -22 -22 -22 -22 -21 -20 -19 -19 -18 -17 -16 -15 -14 -14 -14 -14 -14 -13 -13 -13 -12 -12 -11
-23 -23 -24 -23 -23 -24 -24 -24 -24 -24 -24 -24 -24 -23 -23 -23 -23 -23 -23 -22 -22 -22 -22 -22 -20 -19 -19 -19 -18 -16 -15 -15 -15 -14 -14 -14 -14 -13 -13 -12 -12 -12
-23 -24 -24 -24 -24 -24 -25 -25 -24 -24 -24 -24 -24 -24 -24 -23 -23 -23 -23 -23 -23 -22 -22 -22 -21 -19 -19 -19 -18 -17 -16 -15 -15 -15 -15 -14 -14 -14 -13 -13 -12 -12
-24 -24 -24 -24 -24 -25 -25 -25 -25 -24 -24 -24 -25 -25 -24 -24 -24 -24 -23 -23 -23 -23 -23 -23 -22 -20 -19 -20 -19 -17 -16 -16 -16 -15 -15 -15 -14 -14 -13 -13 -12 -12
-24 -24 -24 -24 -25 -25 -25 -25 -24 -24 -24 -24 -25 -25 -24 -24 -24 -24 -24 -24 -23 -23 -23 -23 -22 -21 -21 -20 -20 -18 -17 -16 -16 -16 -15 -15 -14 -14 -13 -13 -12 -12
Height
856 854 853 852 850 849 847 845 844 842 839 838 834 831 828 826 823 819 817 816 814 812 811 810 808 806 804 802 801 800 798 797 796 795 793 793 792 792 791 790 789 788
858 856 855 853 852 850 849 847 845 843 841 839 836 833 831 828 825 823 820 819 817 815 813 812 810 808 806 804 802 801 799 797 796 795 794 793 793 792 791 790 789 788
859 858 856 854 853 851 849 848 846 844 841 839 836 834 832 830 827 826 824 821 819 817 816 814 812 810 808 806 804 803 801 799 797 796 795 794 794 793 792 791 790 788
860 859 857 855 854 852 850 848 846 844 842 840 838 836 834 832 830 827 826 824 821 819 818 816 814 812 810 808 807 805 803 801 799 798 796 796 795 794 792 791 791 789
862 860 859 857 855 853 851 849 846 844 843 841 839 837 835 833 831 829 827 825 823 822 820 818 816 814 812 810 808 807 804 802 801 799 798 797 796 795 793 792 791 789
864 862 860 858 856 854 852 850 848 846 844 842 840 838 836 834 832 831 829 827 825 823 821 819 817 815 813 811 809 808 806 803 802 801 799 798 797 796 795 793 792 790
864 862 861 859 857 855 853 851 850 847 845 844 841 839 837 835 833 832 830 829 827 825 823 820 818 816 814 812 811 809 807 805 803 801 800 799 797 796 795 794 792 791
865 863 861 860 858 856 854 852 850 848 846 844 842 840 838 836 834 832 831 829 827 825 824 822 820 818 815 813 812 810 808 806 804 803 801 800 798 796 795 794 792 791
866 864 862 860 858 856 854 853 851 849 847 845 843 841 839 837 835 833 831 829 827 825 824 822 820 818 817 814 813 811 809 807 806 804 803 801 799 798 796 794 793 791
866 864 863 861 859 857 855 854 851 849 848 845 843 841 839 837 836 834 832 829 827 825 823 822 820 818 817 815 813 812 810 808 807 805 804 802 801 799 797 795 794 792
866 865 863 861 860 858 856 854 852 850 848 845 844 842 839 838 836 833 832 830 828 826 824 822 820 818 816 814 813 812 810 809 807 805 804 803 801 800 798 796 795 793
867 865 864 862 860 858 856 855 852 850 848 846 844 842 840 838 836 834 832 830 828 826 824 823 821 819 817 814 813 811 810 808 807 805 804 802 801 799 798 797 795 793
867 865 864 863 861 859 857 855 853 851 849 847 845 843 841 839 836 834 833 830 828 826 824 823 821 819 817 815 813 811 810 808 806 804 803 801 800 798 797 796 795 793
867 866 865 863 861 859 857 855 853 851 849 847 845 843 841 839 837 835 833 831 829 827 824 823 821 819 817 815 814 812 810 809 806 804 802 799 798 797 796 795 793 792
867 866 865 863 860 859 857 854 852 851 849 847 845 843 841 839 837 835 833 831 829 827 825 823 821 819 817 816 814 813 811 809 807 804 802 799 797 795 794 793 791 790
867 865 864 862 860 858 856 854 852 850 848 846 845 843 841 839 837 835 833 831 829 826 825 823 821 819 818 817 816 814 812 809 806 804 802 800 797 794 792 790 789 788
866 864 863 861 859 857 855 854 852 849 848 846 844 842 840 838 836 834 833 830 828 826 824 822 820 819 817 816 815 814 812 809 806 804 801 799 797 795 791 789 787 785
865 863 862 860 858 856 854 853 851 849 847 845 843 841 839 837 835 833 832 830 827 825 823 821 819 817 816 815 814 812 811 809 806 803 801 798 796 794 791 788 786 783
864 863 861 859 857 855 853 852 850 848 846 844 842 840 838 836 834 833 830 828 826 824 822 820 817 815 814 813 812 810 809 807 804 801 799 796 794 792 790 787 785 782
863 862 860 858 856 854 852 851 849 847 845 843 841 838 837 835 833 831 829 827 825 823 820 818 815 814 813 811 810 808 806 804 802 799 796 794 791 790 787 785 783 781
862 861 859 857 855 853 851 849 847 846 844 841 840 837 835 833 831 829 827 825 824 821 818 816 814 812 811 809 807 806 804 802 799 796 794 791 789 787 785 783 781 779
862 860 857 856 854 852 850 848 846 845 842 840 838 836 834 832 829 827 825 823 821 819 816 813 811 810 809 807 806 804 802 800 797 794 792 789 787 785 783 781 780 778
861 859 856 855 853 851 849 847 845 843 841 839 837 834 832 830 828 826 824 821 819 817 815 811 808 807 806 805 804 803 800 798 795 792 790 787 785 783 781 779 778 776
859 858 856 854 852 850 848 846 844 842 840 839 836 833 831 829 826 823 821 820 818 815 813 810 806 805 804 803 802 801 799 797 794 791 788 785 783 781 779 777 775 773
858 857 855 853 851 849 848 846 843 841 839 837 835 832 830 827 825 822 819 818 816 814 812 810 806 803 802 800 799 799 798 796 793 790 787 784 782 779 777 775 773 771
857 855 854 852 850 848 847 844 842 840 838 836 833 831 828 826 824 821 818 815 814 812 810 808 805 802 800 799 798 797 796 794 792 789 786 783 780 778 775 772 771 769
Wind_Speed
30 30 29 29 28 28 28 27 28 30 32 32 32 33 34 34 35 36 36 35 34 33 31 29 29 29 27 24 23 24 23 21 20 20 19 20 20 19 19 18 17 16
30 30 30 29 29 30 29 28 28 29 30 30 31 32 32 33 34 35 35 34 33 34 32 30 29 29 28 26 24 25 26 23 22 21 20 20 20 21 20 20 19 18
31 30 31 29 28 30 30 29 29 30 30 31 31 31 32 32 33 34 34 33 33 33 33 31 29 28 27 26 24 25 27 26 25 23 21 20 20 20 21 21 21 21
31 30 30 30 28 29 30 31 31 31 31 32 31 31 31 31 32 33 32 32 33 33 32 31 30 28 27 25 23 26 29 28 28 26 23 22 21 21 21 21 22 22
29 29 29 29 29 29 29 31 32 31 31 31 31 30 30 30 32 32 32 32 32 32 32 31 31 29 27 26 24 27 30 29 30 30 26 24 23 23 23 22 22 23
28 28 28 29 30 29 29 30 31 31 30 30 30 30 30 30 31 31 31 32 31 31 31 31 31 29 29 27 24 27 29 27 28 30 28 26 25 24 24 22 22 22
27 28 28 28 30 29 29 30 30 30 30 30 29 30 30 30 30 30 30 31 30 30 30 30 31 30 29 28 25 27 30 26 26 29 28 26 26 26 25 24 23 22
27 27 27 28 30 30 29 29 30 30 30 29 29 29 29 29 30 30 30 30 30 30 30 29 30 30 29 28 26 27 30 28 26 28 27 27 27 27 27 25 24 23
26 27 26 27 30 30 29 29 30 30 29 29 29 29 29 29 30 30 30 30 30 30 30 29 30 30 29 28 26 27 30 28 26 26 26 25 26 26 26 26 25 24
25 26 25 27 29 29 29 30 30 29 29 29 29 29 29 29 30 29 30 30 30 31 30 30 30 30 29 27 25 27 28 27 25 25 24 23 23 24 24 25 24 23
25 25 24 25 28 29 28 29 30 29 29 28 28 28 29 30 30 30 30 30 30 31 30 30 30 29 29 28 26 27 27 26 25 25 24 23 23 22 22 23 23 23
24 24 22 23 28 28 27 29 29 28 28 28 27 27 28 29 30 30 30 30 30 31 30 30 29 29 29 27 26 27 27 25 25 25 24 23 23 23 22 22 23 23
24 22 19 21 26 26 26 28 27 27 27 27 27 26 26 28 29 29 29 29 31 31 31 30 30 29 29 27 27 28 26 24 24 24 25 24 24 24 24 23 24 23
23 20 18 21 25 25 26 28 27 26 27 26 26 26 25 26 28 28 28 29 31 31 31 31 30 30 29 27 27 27 24 24 24 24 26 27 27 26 25 25 26 25
21 19 19 23 26 26 27 28 26 26 26 25 25 26 26 27 28 27 27 30 32 31 31 31 30 30 29 27 26 26 25 24 24 23 25 27 28 28 28 27 27 26
20 20 21 23 27 27 27 28 25 26 27 24 24 26 26 28 29 27 27 31 32 30 30 32 31 31 29 25 24 25 25 25 24 23 23 24 26 29 30 30 28 28
20 21 21 23 27 27 27 27 26 26 26 23 24 27 25 27 29 27 27 32 33 29 29 32 33 31 28 25 24 25 25 25 24 24 22 22 23 25 29 31 31 31
20 20 22 26 28 27 27 27 26 27 24 23 25 26 25 27 28 25 27 32 32 30 31 33 34 32 28 25 25 25 26 26 24 23 22 21 23 25 27 30 31 32
20 19 23 28 27 27 28 27 27 27 24 24 27 25 25 27 27 26 29 32 30 30 32 34 35 32 28 26 26 26 26 26 25 23 21 21 23 26 28 28 29 30
21 21 25 28 27 27 27 27 28 27 25 27 28 25 25 27 27 28 30 29 30 31 32 34 35 32 29 27 26 26 27 26 24 22 21 22 23 24 25 26 26 27
22 24 26 27 26 27 27 27 28 27 28 29 28 26 28 29 30 30 29 30 33 33 32 34 35 32 29 28 27 27 27 26 22 21 21 22 22 22 22 23 24 25
23 25 25 26 26 27 27 27 27 27 29 29 28 29 31 31 31 31 31 33 35 34 33 35 36 33 29 28 26 27 27 25 22 21 21 21 22 21 21 21 22 23
23 24 25 25 26 26 26 26 26 27 28 28 28 30 31 32 33 33 33 34 36 35 34 35 36 35 31 28 26 26 26 25 23 22 22 21 22 21 21 21 21 22
22 22 24 24 25 25 25 26 26 28 28 27 27 28 29 32 34 35 34 35 35 35 34 33 35 36 33 29 28 26 26 25 23 22 22 21 22 21 21 21 21 21
21 22 23 23 24 24 25 26 27 27 28 28 28 28 30 32 34 34 35 35 34 36 35 32 34 36 34 31 29 27 26 25 23 22 22 22 22 22 22 22 21 21
21 22 22 22 23 24 24 25 26 27 27 28 28 29 30 31 32 33 34 35 34 35 34 32 33 35 34 30 29 28 27 25 23 22 22 22 23 23 24 23 22 21
Wind_Direction
31 31 30 28 28 25 23 23 20 23 24 20 21 22 21 21 24 26 25 25 28 28 28 28 27 27 26 29 31 21 17 20 17 18 22 18 14 12 9 7 6 3
29 30 30 28 27 26 26 25 22 22 21 20 23 23 20 23 25 26 24 25 27 27 28 28 27 27 26 28 30 19 14 17 15 15 19 16 13 14 12 9 7 8
28 29 29 27 23 22 24 25 23 23 22 21 24 22 20 23 25 24 24 24 25 25 26 27 26 27 26 28 26 16 16 19 15 13 15 13 11 10 10 10 7 8
24 25 26 26 22 19 21 23 22 22 21 20 22 21 20 21 21 22 22 22 23 23 23 24 25 25 25 29 23 10 15 21 17 15 15 10 9 7 7 8 6 7
21 21 22 23 21 18 18 20 19 19 18 18 19 20 19 19 19 19 19 19 20 20 20 21 22 22 22 26 20 7 11 15 13 16 16 9 8 7 4 3 3 4
17 17 18 19 19 16 15 17 17 15 15 15 16 16 16 17 17 16 16 17 17 17 17 18 18 19 18 21 16 6 8 9 6 10 13 7 6 7 4 0 358 359
13 13 14 16 16 14 13 13 13 13 12 11 13 13 13 14 14 14 14 14 13 14 16 15 15 15 15 18 13 4 7 8 2 4 6 2 3 4 4 1 355 353
11 10 10 11 11 11 11 10 9 10 9 8 10 10 11 12 12 11 12 12 11 12 12 12 12 12 11 14 9 2 5 6 1 0 0 358 359 359 359 360 355 349
9 8 8 7 7 7 8 7 5 7 6 5 7 6 7 9 9 8 9 9 8 10 9 8 9 9 8 10 7 360 2 2 357 355 355 353 354 353 353 355 354 347
6 6 7 5 3 4 4 3 3 4 3 4 4 2 3 5 4 4 6 5 5 6 6 6 7 5 5 6 3 358 358 356 351 350 350 348 348 347 348 350 349 344
3 5 5 1 0 2 1 360 1 1 1 2 1 359 1 1 360 1 2 1 2 3 2 3 4 2 2 3 358 355 354 351 347 346 345 344 343 343 343 344 344 341
1 3 1 355 357 360 358 357 358 359 359 360 359 358 358 358 358 358 358 358 359 359 359 360 1 1 1 360 354 351 350 346 344 342 340 339 338 338 338 337 338 337
359 0 355 351 354 357 355 355 356 358 358 357 357 357 354 354 356 355 354 356 357 356 356 356 357 358 359 357 352 349 345 340 338 337 335 334 333 333 333 332 333 333
357 356 349 348 353 354 354 355 356 357 356 355 357 355 350 352 354 351 352 355 354 354 355 354 354 356 358 355 348 344 339 334 333 332 330 330 329 328 328 328 329 330
354 350 344 349 353 353 353 355 355 354 354 355 355 352 350 352 352 350 351 353 352 352 352 352 351 353 356 352 341 337 334 330 329 327 326 326 326 326 326 326 327 327
351 346 344 349 352 351 352 355 353 351 353 354 350 349 350 351 351 351 350 349 350 350 348 349 349 350 352 346 335 332 331 328 325 323 321 321 321 323 324 324 324 324
346 345 345 346 348 350 351 353 351 350 353 350 345 348 348 347 349 349 346 347 349 347 344 345 346 348 349 342 333 331 329 326 323 319 317 316 316 318 319 320 321 321
342 342 342 343 346 349 350 351 349 350 350 344 342 346 344 345 348 343 340 346 348 344 341 342 342 345 347 338 330 329 328 325 321 317 314 311 311 313 314 315 317 318
342 339 339 341 345 347 348 348 348 349 346 341 342 342 340 342 342 337 340 345 344 339 339 340 340 343 344 335 328 327 327 324 320 315 311 307 307 310 312 312 314 315
340 336 337 340 344 346 345 345 347 347 342 341 343 340 338 338 337 336 339 340 338 337 336 337 339 341 340 335 330 327 326 324 320 313 308 306 306 309 311 311 312 311
336 334 336 339 342 343 342 343 345 343 340 342 342 337 335 336 336 337 336 334 336 337 334 334 337 338 337 336 332 327 326 325 320 313 309 306 305 306 306 307 309 310
332 332 335 338 339 340 340 341 340 338 338 340 337 334 336 337 335 334 332 332 335 336 334 333 335 336 337 335 330 326 327 326 320 315 311 307 306 306 304 304 307 308
330 332 334 335 336 337 337 336 335 334 336 337 333 332 334 334 333 332 331 332 334 336 335 332 332 337 339 333 328 327 327 326 320 316 312 308 307 307 304 303 304 305
330 332 332 332 333 333 332 332 332 332 332 333 332 330 329 330 332 332 331 332 333 334 335 331 330 336 338 332 328 328 327 326 321 317 313 309 308 307 305 304 303 303
328 330 330 331 330 330 329 329 329 329 330 332 331 328 327 329 331 330 329 331 332 333 335 332 330 333 336 334 330 328 327 326 322 317 314 311 310 309 307 305 304 303
326 327 328 328 327 327 327 327 327 328 329 330 329 327 327 327 328 327 326 327 330 332 333 331 329 331 334 332 327 325 326 325 322 318 315 312 311 310 308 307 306 305